AAL9710 TIST-TJPS

Flight info

Callsign AAL9710
Flight time 0h 21m
Altitude 12000
Route PALCO7 PALCO DCT TUUNA
Aircraft A319/M-SDE3FGHIRWY/LB1

Departure

Time 2026-04-27 12:32
Airport Cyril E. King Airport (TIST)

Arrival

Time 2026-04-27 12:54
Airport Mercedita International Airport (TJPS)
Time Latitude Longitude Altitude Speed Heading
2026-04-27 12:07 18.33482 -64.97302 24 ft 0 kts 46°
2026-04-27 12:25 18.33481 -64.97304 25 ft 3 kts 46°
2026-04-27 12:25 18.33467 -64.97319 29 ft 3 kts 45°
2026-04-27 12:26 18.33453 -64.97333 26 ft 2 kts 39°
2026-04-27 12:26 18.33443 -64.97342 30 ft 1 kts 16°
2026-04-27 12:26 18.33434 -64.97344 29 ft 1 kts 330°
2026-04-27 12:26 18.33427 -64.97339 29 ft 1 kts 319°
2026-04-27 12:27 18.33421 -64.97333 28 ft 1 kts 310°
2026-04-27 12:27 18.33421 -64.97332 27 ft 0 kts 313°
2026-04-27 12:29 18.33432 -64.97345 29 ft 5 kts 313°
2026-04-27 12:29 18.33467 -64.97383 28 ft 11 kts 319°
2026-04-27 12:29 18.33552 -64.97398 25 ft 14 kts 358°
2026-04-27 12:30 18.33619 -64.97463 27 ft 16 kts 273°
2026-04-27 12:30 18.33612 -64.97590 27 ft 19 kts 266°
2026-04-27 12:30 18.33603 -64.97736 28 ft 21 kts 267°
2026-04-27 12:30 18.33596 -64.97898 29 ft 20 kts 267°
2026-04-27 12:31 18.33590 -64.98050 30 ft 22 kts 267°
2026-04-27 12:31 18.33582 -64.98218 31 ft 20 kts 267°
2026-04-27 12:31 18.33590 -64.98315 31 ft 12 kts 302°
2026-04-27 12:31 18.33676 -64.98330 30 ft 11 kts
2026-04-27 12:32 18.33690 -64.98257 30 ft 21 kts 88°
2026-04-27 12:32 18.33712 -64.97721 30 ft 129 kts 87°
2026-04-27 12:32 18.33754 -64.96629 775 ft 153 kts 90°
2026-04-27 12:32 18.33375 -64.95573 1839 ft 164 kts 135°
2026-04-27 12:33 18.32241 -64.95117 2513 ft 198 kts 181°
2026-04-27 12:33 18.30821 -64.95727 2847 ft 247 kts 210°
2026-04-27 12:33 18.29297 -64.96725 3001 ft 262 kts 211°
2026-04-27 12:33 18.27759 -64.97770 3115 ft 264 kts 215°
2026-04-27 12:34 18.26531 -64.99205 3237 ft 267 kts 234°
2026-04-27 12:34 18.25586 -65.00889 3413 ft 273 kts 248°
2026-04-27 12:34 18.25312 -65.02889 4382 ft 285 kts 274°
2026-04-27 12:34 18.25646 -65.04916 5905 ft 280 kts 280°
2026-04-27 12:35 18.26017 -65.06938 7167 ft 283 kts 280°
2026-04-27 12:35 18.26398 -65.08986 8365 ft 287 kts 280°
2026-04-27 12:35 18.26791 -65.11069 9371 ft 294 kts 280°
2026-04-27 12:35 18.27184 -65.13142 10389 ft 300 kts 280°
2026-04-27 12:36 18.27610 -65.15387 10940 ft 325 kts 280°
2026-04-27 12:36 18.28069 -65.17810 11441 ft 349 kts 280°
2026-04-27 12:36 18.28414 -65.20373 11875 ft 357 kts 272°
2026-04-27 12:36 18.28364 -65.22981 11984 ft 364 kts 263°
2026-04-27 12:37 18.27878 -65.25704 12005 ft 391 kts 253°
2026-04-27 12:37 18.26895 -65.28369 12005 ft 399 kts 243°
2026-04-27 12:37 18.25649 -65.30980 12002 ft 400 kts 242°
2026-04-27 12:37 18.24398 -65.33593 12008 ft 400 kts 243°
2026-04-27 12:38 18.23145 -65.36210 12010 ft 400 kts 243°
2026-04-27 12:38 18.21895 -65.38828 12010 ft 401 kts 243°
2026-04-27 12:38 18.20647 -65.41447 12010 ft 401 kts 243°
2026-04-27 12:38 18.19398 -65.44070 12008 ft 401 kts 243°
2026-04-27 12:39 18.18150 -65.46689 12008 ft 401 kts 243°
2026-04-27 12:39 18.16904 -65.49307 12008 ft 401 kts 243°
2026-04-27 12:39 18.15654 -65.51928 12010 ft 401 kts 243°
2026-04-27 12:39 18.14399 -65.54554 12015 ft 401 kts 243°
2026-04-27 12:40 18.13147 -65.57170 12015 ft 401 kts 243°
2026-04-27 12:40 18.11909 -65.59757 12014 ft 401 kts 243°
2026-04-27 12:40 18.10639 -65.62410 12014 ft 401 kts 243°
2026-04-27 12:40 18.09382 -65.65034 12014 ft 401 kts 242°
2026-04-27 12:41 18.08144 -65.67618 12015 ft 401 kts 242°
2026-04-27 12:41 18.06891 -65.70236 12016 ft 402 kts 242°
2026-04-27 12:41 18.05638 -65.72859 12017 ft 402 kts 243°
2026-04-27 12:41 18.04386 -65.75484 12015 ft 402 kts 242°
2026-04-27 12:42 18.03129 -65.78112 12020 ft 402 kts 242°
2026-04-27 12:42 18.01874 -65.80731 12019 ft 402 kts 242°
2026-04-27 12:42 18.00615 -65.83354 12020 ft 402 kts 242°
2026-04-27 12:42 17.99391 -65.85996 12018 ft 403 kts 246°
2026-04-27 12:43 17.98560 -65.88805 12020 ft 404 kts 257°
2026-04-27 12:43 17.98250 -65.91704 12024 ft 406 kts 268°
2026-04-27 12:43 17.98350 -65.94671 12029 ft 406 kts 271°
2026-04-27 12:43 17.98482 -65.97631 12024 ft 406 kts 271°
2026-04-27 12:44 17.98610 -66.00594 12029 ft 406 kts 271°
2026-04-27 12:44 17.98733 -66.03551 12026 ft 406 kts 271°
2026-04-27 12:44 17.98855 -66.06513 12031 ft 406 kts 271°
2026-04-27 12:44 17.98977 -66.09479 12031 ft 406 kts 271°
2026-04-27 12:45 17.99100 -66.12439 12034 ft 406 kts 271°
2026-04-27 12:45 17.99221 -66.15344 11923 ft 387 kts 271°
2026-04-27 12:45 17.99337 -66.18089 11708 ft 367 kts 271°
2026-04-27 12:45 17.99448 -66.20708 11472 ft 351 kts 271°
2026-04-27 12:46 17.99556 -66.23216 11230 ft 337 kts 271°
2026-04-27 12:46 17.99654 -66.25639 10874 ft 328 kts 271°
2026-04-27 12:46 17.99745 -66.27998 10426 ft 319 kts 271°
2026-04-27 12:46 17.99828 -66.30151 10015 ft 311 kts 271°
2026-04-27 12:47 17.99916 -66.32391 9543 ft 303 kts 271°
2026-04-27 12:47 18.00003 -66.34580 9063 ft 296 kts 271°
2026-04-27 12:47 18.00088 -66.36690 8839 ft 280 kts 271°
2026-04-27 12:47 18.00170 -66.38693 8392 ft 272 kts 271°
2026-04-27 12:48 18.00249 -66.40640 8133 ft 258 kts 270°
2026-04-27 12:48 18.00323 -66.42469 7968 ft 243 kts 270°
2026-04-27 12:48 18.00392 -66.44163 7962 ft 222 kts 270°
2026-04-27 12:48 18.00456 -66.45707 7823 ft 202 kts 270°
2026-04-27 12:49 18.00515 -66.47150 7303 ft 198 kts 270°
2026-04-27 12:49 18.00367 -66.48572 6627 ft 200 kts 251°
2026-04-27 12:49 17.99902 -66.49954 5916 ft 202 kts 247°
2026-04-27 12:49 17.99407 -66.51324 5343 ft 198 kts 246°
2026-04-27 12:50 17.98916 -66.52663 4811 ft 195 kts 246°
2026-04-27 12:50 17.98429 -66.53980 4255 ft 193 kts 246°
2026-04-27 12:50 17.97944 -66.55286 3723 ft 191 kts 246°
2026-04-27 12:50 17.97466 -66.56566 3311 ft 184 kts 247°
2026-04-27 12:51 17.97019 -66.57798 2962 ft 178 kts 249°
2026-04-27 12:51 17.96918 -66.59031 2794 ft 159 kts 278°
2026-04-27 12:51 17.97277 -66.60055 2606 ft 151 kts 291°
2026-04-27 12:51 17.97669 -66.61092 2166 ft 153 kts 297°
2026-04-27 12:52 17.98358 -66.61907 1858 ft 144 kts 328°
2026-04-27 12:52 17.99273 -66.62024 1665 ft 131 kts 22°
2026-04-27 12:52 17.99952 -66.61425 1405 ft 130 kts 48°
2026-04-27 12:52 18.00573 -66.60722 1085 ft 132 kts 49°
2026-04-27 12:53 18.01433 -66.59084 467 ft 127 kts 82°
2026-04-27 12:53 18.01379 -66.58182 274 ft 123 kts 101°
2026-04-27 12:53 18.01146 -66.57322 110 ft 122 kts 108°
2026-04-27 12:54 18.00898 -66.56520 38 ft 97 kts 107°
2026-04-27 12:54 18.00745 -66.56022 36 ft 47 kts 108°
2026-04-27 12:54 18.00655 -66.55732 35 ft 40 kts 108°
2026-04-27 12:54 18.00590 -66.55519 38 ft 17 kts 107°
2026-04-27 12:55 18.00616 -66.55422 37 ft 15 kts 20°
2026-04-27 12:55 18.00691 -66.55471 37 ft 16 kts 284°
2026-04-27 12:55 18.00728 -66.55595 37 ft 18 kts 288°
2026-04-27 12:55 18.00766 -66.55718 37 ft 17 kts 288°
2026-04-27 12:56 18.00802 -66.55833 34 ft 16 kts 288°
2026-04-27 12:56 18.00836 -66.55942 35 ft 15 kts 287°
2026-04-27 12:56 18.00870 -66.56042 37 ft 14 kts 292°
2026-04-27 12:56 18.00902 -66.56138 36 ft 13 kts 286°
2026-04-27 12:57 18.00929 -66.56224 37 ft 11 kts 296°
2026-04-27 12:57 18.00976 -66.56270 37 ft 6 kts 319°
2026-04-27 12:57 18.01002 -66.56294 37 ft 3 kts 319°
2026-04-27 12:57 18.01006 -66.56298 37 ft 0 kts 319°